Sign-in with your pilot id or email, or register

ICAO: LZIB Name / Country: Bratislava Ivanka / Slovakia
Latitude: 48.1702 Longitude: 17.2127
Total Arrivals:
Strict Standards: Non-static method AirportData::getarrflights() should not be called statically, assuming $this from incompatible context in /var/www/customers/vh-7192/web/home/phpvms/core/templates/airport_info.tpl on line 18
1
Total Departures:
Strict Standards: Non-static method AirportData::getdeptflights() should not be called statically, assuming $this from incompatible context in /var/www/customers/vh-7192/web/home/phpvms/core/templates/airport_info.tpl on line 21
0
Latest Arrival: MTA11P (CHART (LHDC-LZIB) Tibor Berces Latest Departure: (-)
Metar: LZIB 200600Z 12004KT 9999 FEW007 M01/M02 Q1014 R13/7/0195 NOSIG
More info

Charts for LZIB


NOTAM


Warning: file_get_contents(http://api.vateud.net/notams/LZIB.json): failed to open stream: HTTP request failed! HTTP/1.1 404 Not Found in /var/www/customers/vh-7192/web/home/phpvms/core/common/NOTAMSData.class.php on line 18

Warning: Invalid argument supplied for foreach() in /var/www/customers/vh-7192/web/home/phpvms/core/common/NOTAMSData.class.php on line 22

Bratislava Ivanka